Hourly Weather Ruzayevka

Today, 18 April, Sunday

Time Temperature Precipitation Wind Pressure Humidity
00:00 +8°C° 0 mm 3 mps 748 mmHg 62%
01:00 +8°C° 0 mm 3 mps 748 mmHg 64%
02:00 +7°C° 0 mm 3 mps 748 mmHg 66%
03:00 +7°C° 0 mm 3 mps 749 mmHg 68%
04:00 +7°C° 0.1 mm 3 mps 748 mmHg 67%
05:00 +7°C° 0.1 mm 3 mps 748 mmHg 67%
06:00 +6°C° 0.1 mm 4 mps 748 mmHg 66%
07:00 +6°C° 0.5 mm 4 mps 748 mmHg 65%
08:00 +7°C° 0.5 mm 4 mps 748 mmHg 65%
09:00 +7°C° 0.5 mm 4 mps 749 mmHg 64%
10:00 +8°C° 1.1 mm 3 mps 749 mmHg 64%
11:00 +9°C° 1.1 mm 3 mps 749 mmHg 65%
12:00 +9°C° 1.1 mm 3 mps 749 mmHg 65%
13:00 +9°C° 0.8 mm 2 mps 749 mmHg 67%
14:00 +9°C° 0.8 mm 2 mps 749 mmHg 68%
15:00 +10°C° 0.8 mm 1 mps 749 mmHg 70%
16:00 +10°C° 0.6 mm 1 mps 749 mmHg 71%
17:00 +10°C° 0.6 mm 1 mps 749 mmHg 72%
18:00 +10°C° 0.6 mm 1 mps 749 mmHg 73%
19:00 +10°C° 0.3 mm 1 mps 749 mmHg 75%
20:00 +8°C° 0.3 mm 2 mps 749 mmHg 77%
21:00 +8°C° 0.3 mm 2 mps 750 mmHg 79%
22:00 +7°C° 0.1 mm 3 mps 750 mmHg 78%
23:00 +6°C° 0.1 mm 4 mps 750 mmHg 77%

Tomorrow, 19 April, Monday

Time Temperature Precipitation Wind Pressure Humidity
00:00 +6°C° 0.1 mm 5 mps 750 mmHg 76%
01:00 +5°C° 0.2 mm 5 mps 750 mmHg 78%
02:00 +4°C° 0.2 mm 6 mps 750 mmHg 80%
03:00 +3°C° 0.2 mm 6 mps 750 mmHg 83%
04:00 +3°C° 0.6 mm 6 mps 750 mmHg 82%
05:00 +2°C° 0.6 mm 6 mps 750 mmHg 81%
06:00 +1°C° 0.6 mm 6 mps 750 mmHg 80%
07:00 +2°C° 0.2 mm 6 mps 750 mmHg 78%
08:00 +2°C° 0.2 mm 7 mps 750 mmHg 76%
09:00 +2°C° 0.2 mm 7 mps 750 mmHg 74%
10:00 +3°C° 0.2 mm 7 mps 750 mmHg 69%
11:00 +4°C° 0.2 mm 8 mps 750 mmHg 64%
12:00 +5°C° 0.2 mm 8 mps 750 mmHg 59%
13:00 +5°C° 0 mm 8 mps 750 mmHg 59%
14:00 +6°C° 0 mm 7 mps 750 mmHg 59%
15:00 +7°C° 0 mm 6 mps 751 mmHg 60%
16:00 +6°C° 0.1 mm 7 mps 751 mmHg 62%
17:00 +5°C° 0.1 mm 7 mps 751 mmHg 65%
18:00 +5°C° 0.1 mm 7 mps 751 mmHg 68%
19:00 +4°C° 0.1 mm 7 mps 751 mmHg 72%
20:00 +4°C° 0.1 mm 7 mps 751 mmHg 77%
21:00 +3°C° 0.1 mm 7 mps 751 mmHg 81%
22:00 +3°C° 0 mm 7 mps 752 mmHg 80%
23:00 +3°C° 0 mm 7 mps 752 mmHg 79%

Day after tomorrow, 20 April, Tuesday

Time Temperature Precipitation Wind Pressure Humidity
00:00 +3°C° 0 mm 6 mps 752 mmHg 77%
01:00 +2°C° 0 mm 6 mps 752 mmHg 77%
02:00 +2°C° 0 mm 6 mps 752 mmHg 77%
03:00 +2°C° 0 mm 6 mps 752 mmHg 76%
04:00 +2°C° 0 mm 6 mps 752 mmHg 77%
05:00 +2°C° 0 mm 6 mps 752 mmHg 78%
06:00 +2°C° 0 mm 6 mps 752 mmHg 79%
07:00 +3°C° 0 mm 7 mps 752 mmHg 75%
08:00 +3°C° 0 mm 7 mps 752 mmHg 71%
09:00 +3°C° 0 mm 7 mps 752 mmHg 67%
10:00 +4°C° 0 mm 8 mps 752 mmHg 62%
11:00 +5°C° 0 mm 8 mps 752 mmHg 58%
12:00 +6°C° 0 mm 9 mps 752 mmHg 53%
13:00 +7°C° 0 mm 9 mps 752 mmHg 52%
14:00 +8°C° 0 mm 9 mps 751 mmHg 50%
15:00 +10°C° 0 mm 9 mps 751 mmHg 48%
16:00 +8°C° 0 mm 9 mps 750 mmHg 50%
17:00 +9°C° 0 mm 8 mps 750 mmHg 51%
18:00 +7°C° 0 mm 8 mps 750 mmHg 52%
19:00 +6°C° 0 mm 9 mps 749 mmHg 53%
20:00 +6°C° 0 mm 9 mps 749 mmHg 54%
21:00 +5°C° 0 mm 9 mps 749 mmHg 54%
22:00 +3°C° 0.1 mm 9 mps 749 mmHg 56%
23:00 +3°C° 0.1 mm 10 mps 748 mmHg 58%

21 April, Wednesday

Time Temperature Precipitation Wind Pressure Humidity
00:00 +3°C° 0.1 mm 10 mps 748 mmHg 60%
01:00 +2°C° 0.4 mm 10 mps 747 mmHg 65%
02:00 +2°C° 0.4 mm 10 mps 747 mmHg 69%
03:00 +1°C° 0.4 mm 11 mps 746 mmHg 74%
04:00 +1°C° 0.5 mm 11 mps 746 mmHg 78%
05:00 +1°C° 0.5 mm 10 mps 746 mmHg 81%
06:00 +1°C° 0.5 mm 10 mps 745 mmHg 84%
07:00 +1°C° 0.6 mm 10 mps 745 mmHg 85%
08:00 +1°C° 0.6 mm 10 mps 745 mmHg 86%
09:00 +1°C° 0.6 mm 10 mps 746 mmHg 87%
10:00 +1°C° 0.1 mm 10 mps 746 mmHg 87%
11:00 +1°C° 0.1 mm 9 mps 746 mmHg 88%
12:00 +1°C° 0.1 mm 9 mps 746 mmHg 89%
13:00 +1°C° 0.1 mm 9 mps 746 mmHg 89%
14:00 +1°C° 0.1 mm 9 mps 746 mmHg 90%
15:00 +1°C° 0.1 mm 8 mps 746 mmHg 91%
16:00 +1°C° 0 mm 8 mps 746 mmHg 91%
17:00 +1°C° 0 mm 8 mps 746 mmHg 91%
18:00 +1°C° 0 mm 8 mps 747 mmHg 92%
19:00 +2°C° 0.1 mm 7 mps 747 mmHg 92%
20:00 +2°C° 0.1 mm 7 mps 747 mmHg 93%
21:00 +2°C° 0.1 mm 6 mps 748 mmHg 94%
22:00 +2°C° 0 mm 6 mps 748 mmHg 94%
23:00 +2°C° 0 mm 5 mps 748 mmHg 95%

22 April, Thursday

Time Temperature Precipitation Wind Pressure Humidity
00:00 +3°C° 0 mm 5 mps 749 mmHg 96%
01:00 +4°C° 0 mm 4 mps 749 mmHg 96%
02:00 +3°C° 0 mm 4 mps 749 mmHg 97%
03:00 +3°C° 0 mm 3 mps 750 mmHg 97%
04:00 +3°C° 0 mm 3 mps 750 mmHg 97%
05:00 +4°C° 0 mm 3 mps 750 mmHg 97%
06:00 +4°C° 0 mm 3 mps 751 mmHg 96%
07:00 +5°C° 0 mm 3 mps 751 mmHg 91%
08:00 +7°C° 0 mm 3 mps 751 mmHg 86%
09:00 +7°C° 0 mm 4 mps 751 mmHg 81%
10:00 +8°C° 0.1 mm 4 mps 751 mmHg 75%
11:00 +9°C° 0.1 mm 5 mps 751 mmHg 69%
12:00 +10°C° 0.1 mm 5 mps 752 mmHg 63%
13:00 +10°C° 0.1 mm 5 mps 752 mmHg 62%
14:00 +11°C° 0.1 mm 4 mps 752 mmHg 62%
15:00 +11°C° 0.1 mm 4 mps 752 mmHg 62%
16:00 +10°C° 0 mm 3 mps 752 mmHg 63%
17:00 +10°C° 0 mm 2 mps 752 mmHg 65%
18:00 +11°C° 0 mm 1 mps 752 mmHg 66%
19:00 +10°C° 0 mm 1 mps 753 mmHg 68%
20:00 +9°C° 0 mm 1 mps 753 mmHg 69%
21:00 +7°C° 0 mm 0 mps 753 mmHg 71%
22:00 +7°C° 0 mm 0 mps 753 mmHg 73%
23:00 +7°C° 0 mm 0 mps 753 mmHg 74%

23 April, Friday

Time Temperature Precipitation Wind Pressure Humidity
00:00 +6°C° 0 mm 0 mps 753 mmHg 76%
01:00 +6°C° 0 mm 0 mps 753 mmHg 78%
02:00 +6°C° 0 mm 0 mps 753 mmHg 79%
03:00 +5°C° 0 mm 0 mps 753 mmHg 81%
04:00 +6°C° 0 mm 1 mps 753 mmHg 83%
05:00 +6°C° 0 mm 1 mps 753 mmHg 84%
06:00 +6°C° 0 mm 1 mps 753 mmHg 86%
07:00 +8°C° 0 mm 1 mps 753 mmHg 82%
08:00 +9°C° 0 mm 1 mps 753 mmHg 79%
09:00 +10°C° 0 mm 2 mps 753 mmHg 76%
10:00 +12°C° 0.1 mm 2 mps 753 mmHg 70%
11:00 +13°C° 0.1 mm 2 mps 753 mmHg 65%
12:00 +13°C° 0.1 mm 2 mps 753 mmHg 59%
13:00 +13°C° 0.2 mm 2 mps 753 mmHg 60%
14:00 +13°C° 0.2 mm 2 mps 752 mmHg 61%
15:00 +13°C° 0.2 mm 2 mps 752 mmHg 62%
16:00 +12°C° 0.3 mm 3 mps 752 mmHg 68%
17:00 +11°C° 0.3 mm 3 mps 752 mmHg 74%
18:00 +10°C° 0.3 mm 4 mps 752 mmHg 79%
19:00 +9°C° 0 mm 3 mps 752 mmHg 82%
20:00 +9°C° 0 mm 3 mps 752 mmHg 84%
21:00 +8°C° 0 mm 2 mps 752 mmHg 87%
22:00 +8°C° 0 mm 2 mps 752 mmHg 87%
23:00 +7°C° 0 mm 2 mps 752 mmHg 88%
Show more